Torna al catalogo

FENGYUN 1C DEB

AttivoLEO
NORAD 30622·DEBRIS·🇨🇳 China

Lanciato May 10, 1999 da Taiyuan Satellite Launch Center

Loading…

Prossimi Passaggi (prossime 24 ore)

TLE

AggiornatoSource: Space-Track

Epoca: Sep 14, 2026, 04:42 UTC

1 30622U 99025AND 26257.19593700  .00004068  00000-0  14136-2 0  9999
2 30622 100.9927 347.3914 0066076 345.8529  44.4275 14.35047331727446

Traccia FENGYUN 1C DEB in tempo reale con AllMySat

Download on the App Store